Location: Petrozavodsk
(61.7857°N, 34.3593°E)
Time: 15:51:28
(UTC+03:00)

Terra - Pass Details

Date: 30 October 2019
Orbit: 701 x 703 km, 98.2° (Epoch: 12 November)

Event Time Altitude Azimuth Distance (km) Brightness Sun altitude
Exits shadow 18:51:37 10° 37° (NE) 2,201 4.0 -15.2°
Reaches altitude 10° 18:51:50 10° 35° (NE) 2,184 4.0 -15.2°
Maximum altitude 18:52:37 10° 25° (NNE) 2,159 4.1 -15.3°
Drops below altitude 10° 18:53:23 10° 16° (NNE) 2,185 4.2 -15.4°
Sets 18:57:50 0° 337° (NNW) 3,107 5.5 -15.9°
